Tracking 30743 objects as of 24-Jun-2025
HD Live streaming from Space Station
objects crossing your sky now

COSMOS 839 DEB

Track COSMOS 839 DEB now!
10-day predictions


NORAD ID: 14919
Int'l Code: 1976-067BG
Perigee: 975.6 km
Apogee: 2,133.9 km
Inclination: 65.8 °
Period: 117.0 minutes
Semi major axis: 7925 km
RCS: 0.0133 m2 (small)
Launch date: July 8, 1976
Source: Commonwealth of Independent States (former USSR) (CIS)
Launch site: PLESETSK MISSILE AND SPACE COMPLEX (PKMTR)

Note: This is SATELLITE DEBRIS
Your satellite tracking list
Your tracking list is empty




NASA's NSSDC Master Catalog

Two Line Element Set (TLE):
1 14919U 76067BG  25174.79492081 -.00000026  00000-0  10210-3 0  9995
2 14919  65.8076 313.8911 0730692 230.8264 203.9052 12.30389151590453
Source of the keplerian elements: AFSPC